GW1091 Weather Reports


time (UTC)temp
C
wind
direction
speed
KPH
gust
KPH
rain 1hr
cm
rain 24hr
cm
rain mn
cm
humidity
%
barometer
mb
20260508234835 8 180 0.0 0.0 0.00 0.00 0.00 68 1015.5
20260508234324 8 180 0.0 0.0 0.00 0.00 0.00 68 1015.5
20260508233815 8 158 0.0 0.0 0.00 0.00 0.00 67 1015.5
20260508233304 8 158 0.0 0.0 0.00 0.00 0.00 68 1015.3
20260508232244 8 135 0.0 0.0 0.00 0.00 0.00 67 1015.1
20260508231734 8 113 0.0 0.0 0.00 0.00 0.00 67 1015.1
20260508231224 8 158 0.0 0.0 0.00 0.00 0.00 66 1014.7
20260508230715 9 113 0.0 0.0 0.00 0.00 0.00 64 1014.6
20260508230204 9 135 0.0 0.0 0.00 0.00 0.00 65 1014.4
20260508225654 9 113 0.0 0.0 0.00 0.00 0.00 65 1014.2
20260508225143 9 135 0.0 0.0 0.00 0.00 0.00 63 1013.8
20260508224633 9 135 0.0 0.0 0.00 0.00 0.00 63 1013.9
20260508223613 10 113 0.0 0.0 0.00 0.00 0.00 58 1013.5
20260508223104 10 90 0.0 0.0 0.00 0.00 0.00 57 1013.4
20260508222553 10 90 0.0 0.0 0.00 0.00 0.00 55 1013.0
20260508221537 11 90 0.0 0.0 0.00 0.00 0.00 55 1012.8
20260508221023 11 90 0.0 0.0 0.00 0.00 0.00 55 1012.7
20260508220513 11 68 0.0 0.0 0.00 0.00 0.00 54 1012.4
20260508215452 12 68 0.0 0.0 0.00 0.00 0.00 52 1012.2
20260508214433 12 68 0.0 0.0 0.00 0.00 0.00 50 1012.2
20260508213923 13 68 0.0 0.0 0.00 0.00 0.00 49 1012.1
20260508213411 13 68 0.0 0.0 0.00 0.00 0.00 47 1012.5
20260508212902 13 68 0.0 0.0 0.00 0.00 0.00 46 1012.2
20260508212352 14 68 0.0 0.0 0.00 0.00 0.00 43 1012.3
20260508211331 15 0 0.0 0.0 0.00 0.00 0.00 43 1012.1
20260508210821 16 45 0.0 0.0 0.00 0.00 0.00 42 1011.7
20260508210313 16 23 0.0 0.0 0.00 0.00 0.00 40 1011.8
20260508205251 16 68 0.0 0.0 0.00 0.00 0.00 39 1012.2
20260508204741 16 68 0.0 0.0 0.00 0.00 0.00 39 1012.3
20260508204231 16 68 0.0 0.0 0.00 0.00 0.00 38 1012.3
20260508203210 17 68 0.0 0.0 0.00 0.00 0.00 37 1012.4
20260508202150 17 45 0.0 0.0 0.00 0.00 0.00 35 1012.4
20260508201131 17 0 0.0 0.0 0.00 0.00 0.00 36 1012.3
20260508200620 17 0 0.0 0.0 0.00 0.00 0.00 36 1012.5
20260508200110 17 0 0.0 0.0 0.00 0.00 0.00 36 1012.3
20260508195559 17 90 0.0 0.0 0.00 0.00 0.00 36 1012.2
20260508195050 17 45 0.0 0.0 0.00 0.00 0.00 36 1012.2
20260508194543 17 45 0.0 0.0 0.00 0.00 0.00 36 1012.3
20260508194030 17 68 0.0 0.0 0.00 0.00 0.00 36 1012.1
20260508193519 17 68 0.0 0.0 0.00 0.00 0.00 36 1012.2
20260508192458 18 90 0.0 0.0 0.00 0.00 0.00 36 1012.2
20260508191948 18 158 0.0 0.0 0.00 0.00 0.00 35 1012.3
20260508191438 18 113 0.0 0.0 0.00 0.00 0.00 35 1012.2
20260508190928 19 293 0.0 0.0 0.00 0.00 0.00 34 1012.4
20260508190419 18 113 0.0 0.0 0.00 0.00 0.00 35 1012.5
20260508185359 18 90 0.0 0.0 0.00 0.00 0.00 36 1012.4
20260508184338 18 45 0.0 0.0 0.00 0.00 0.00 35 1012.6
20260508182808 17 68 0.0 6.4 0.00 0.00 0.00 36 1012.7
20260508182257 17 23 0.0 6.4 0.00 0.00 0.00 36 1012.6
20260508181747 18 45 1.6 6.4 0.00 0.00 0.00 36 1012.6
20260508181237 17 203 0.0 0.0 0.00 0.00 0.00 36 1012.8
20260508180728 18 180 0.0 0.0 0.00 0.00 0.00 35 1012.8
20260508180217 17 270 0.0 0.0 0.00 0.00 0.00 37 1013.0
20260508174647 18 68 0.0 0.0 0.00 0.00 0.00 35 1013.4
20260508174137 17 203 0.0 0.0 0.00 0.00 0.00 35 1013.5
20260508173627 17 113 0.0 0.0 0.00 0.00 0.00 35 1013.6
20260508173117 17 180 0.0 0.0 0.00 0.00 0.00 35 1013.7
20260508172056 17 158 0.0 0.0 0.00 0.00 0.00 36 1014.0
20260508171545 17 203 0.0 0.0 0.00 0.00 0.00 35 1013.9
20260508171036 17 113 0.0 0.0 0.00 0.00 0.00 36 1013.9
20260508170526 17 225 0.0 0.0 0.00 0.00 0.00 36 1014.1
20260508170015 17 180 0.0 0.0 0.00 0.00 0.00 36 1014.2
20260508165507 17 293 0.0 0.0 0.00 0.00 0.00 34 1014.2
20260508164955 17 113 0.0 0.0 0.00 0.00 0.00 36 1014.6
20260508163936 17 90 0.0 6.4 0.00 0.00 0.00 36 1014.8
20260508163425 17 135 0.0 0.0 0.00 0.00 0.00 36 1014.9
20260508162915 17 270 0.0 3.2 0.00 0.00 0.00 36 1015.1
20260508162406 16 225 0.0 3.2 0.00 0.00 0.00 36 1015.2
20260508161855 16 203 0.0 3.2 0.00 0.00 0.00 35 1015.4
20260508161345 17 90 0.0 3.2 0.00 0.00 0.00 35 1015.2
20260508160324 16 135 0.0 3.2 0.00 0.00 0.00 34 1015.6
20260508155815 16 113 0.0 3.2 0.00 0.00 0.00 34 1015.7
20260508155306 16 158 0.0 3.2 0.00 0.00 0.00 34 1016.0
20260508154756 16 180 0.0 0.0 0.00 0.00 0.00 34 1015.7
20260508154244 16 248 0.0 0.0 0.00 0.00 0.00 34 1015.7
20260508153734 16 225 0.0 0.0 0.00 0.00 0.00 34 1015.9
20260508153223 16 248 0.0 0.0 0.00 0.00 0.00 33 1015.7
20260508152713 16 113 0.0 3.2 0.00 0.00 0.00 32 1016.1
20260508152203 16 225 0.0 3.2 0.00 0.00 0.00 31 1016.1
20260508151653 16 248 0.0 0.0 0.00 0.00 0.00 32 1016.1
20260508151144 16 225 0.0 3.2 0.00 0.00 0.00 32 1016.0
20260508150633 15 203 0.0 3.2 0.00 0.00 0.00 31 1016.1
20260508150125 16 203 0.0 3.2 0.00 0.00 0.00 31 1016.3
20260508145614 15 248 0.0 3.2 0.00 0.00 0.00 31 1016.0
20260508145105 15 248 0.0 0.0 0.00 0.00 0.00 31 1016.2
20260508144553 15 158 0.0 0.0 0.00 0.00 0.00 30 1016.3
20260508143533 15 180 0.0 3.2 0.00 0.00 0.00 31 1016.5
20260508143022 15 203 0.0 3.2 0.00 0.00 0.00 31 1016.4
20260508142513 14 248 0.0 0.0 0.00 0.00 0.00 30 1016.5
20260508141453 13 248 0.0 3.2 0.00 0.00 0.00 31 1016.6
20260508140432 13 203 0.0 0.0 0.00 0.00 0.00 31 1016.4
20260508135921 22 225 0.0 0.0 0.00 0.00 0.00 49 1016.5
20260508134901 13 203 0.0 3.2 0.00 0.00 0.00 33 1016.7
20260508134352 13 270 0.0 3.2 0.00 0.00 0.00 33 1016.6
20260508133841 13 248 0.0 0.0 0.00 0.00 0.00 34 1016.5
20260508133331 13 225 0.0 0.0 0.00 0.00 0.00 34 1016.5
20260508132822 12 248 0.0 3.2 0.00 0.00 0.00 35 1016.6
20260508132311 12 248 0.0 3.2 0.00 0.00 0.00 36 1016.7
20260508131803 12 225 0.0 3.2 0.00 0.00 0.00 37 1017.0
20260508131250 12 203 0.0 0.0 0.00 0.00 0.00 37 1016.4
20260508130741 11 270 0.0 0.0 0.00 0.00 0.00 37 1016.9
20260508130231 11 225 0.0 0.0 0.00 0.00 0.00 38 1016.7
20260508125210 11 248 0.0 3.2 0.00 0.00 0.00 39 1016.5
20260508124700 11 225 0.0 0.0 0.00 0.00 0.00 40 1016.9
20260508124150 11 203 0.0 0.0 0.00 0.00 0.00 40 1016.7
20260508123640 10 158 0.0 0.0 0.00 0.00 0.00 42 1016.7
20260508122623 10 248 0.0 3.2 0.00 0.00 0.00 43 1017.0
20260508122109 10 225 0.0 3.2 0.00 0.00 0.00 44 1016.7
20260508120539 9 203 0.0 0.0 0.00 0.00 0.00 47 1016.6
20260508120029 9 203 0.0 0.0 0.00 0.00 0.00 47 1016.6
20260508115519 8 225 0.0 0.0 0.00 0.00 0.00 48 1016.6
20260508115009 8 203 0.0 0.0 0.00 0.00 0.00 48 1016.5
20260508114459 8 248 0.0 0.0 0.00 0.00 0.00 48 1016.7
20260508113950 8 203 0.0 0.0 0.00 0.00 0.00 50 1016.6
20260508113439 7 225 0.0 0.0 0.00 0.00 0.00 51 1016.5
20260508112929 7 225 0.0 3.2 0.00 0.00 0.00 51 1016.3
20260508112418 7 158 0.0 3.2 0.00 0.00 0.00 50 1016.7
20260508111908 7 203 0.0 3.2 0.00 0.00 0.00 51 1016.5
20260508111357 7 180 0.0 0.0 0.00 0.00 0.00 51 1016.5
20260508110849 7 158 0.0 3.2 0.00 0.00 0.00 51 1016.4
20260508110339 7 180 0.0 3.2 0.00 0.00 0.00 51 1016.4
20260508105828 7 135 0.0 0.0 0.00 0.00 0.00 50 1016.1
20260508105317 7 135 0.0 3.2 0.00 0.00 0.00 50 1016.4
20260508104808 7 113 0.0 3.2 0.00 0.00 0.00 50 1016.2
20260508104258 7 135 0.0 0.0 0.00 0.00 0.00 51 1016.4
20260508103747 7 135 0.0 0.0 0.00 0.00 0.00 51 1016.2
20260508103238 7 135 0.0 0.0 0.00 0.00 0.00 51 1016.2
20260508102726 7 158 0.0 0.0 0.00 0.00 0.00 50 1016.2
20260508102217 7 158 0.0 0.0 0.00 0.00 0.00 50 1016.2
20260508101708 7 135 0.0 0.0 0.00 0.00 0.00 49 1016.0
20260508101158 7 113 0.0 0.0 0.00 0.00 0.00 49 1016.1
20260508100646 7 180 0.0 0.0 0.00 0.00 0.00 48 1015.7
20260508100138 7 180 0.0 0.0 0.00 0.00 0.00 48 1016.1
20260508095117 8 180 0.0 0.0 0.00 0.00 0.00 47 1016.1
20260508094602 8 180 0.0 0.0 0.00 0.00 0.00 45 1015.9
20260508094056 8 180 0.0 0.0 0.00 0.00 0.00 45 1015.8
20260508092526 8 180 0.0 3.2 0.00 0.00 0.00 44 1015.4
20260508092016 8 135 0.0 3.2 0.00 0.00 0.00 44 1015.4
20260508090955 8 158 0.0 0.0 0.00 0.00 0.00 43 1015.7
20260508090446 8 203 0.0 0.0 0.00 0.00 0.00 43 1015.7
20260508085935 9 203 0.0 0.0 0.00 0.00 0.00 42 1015.5
20260508085426 9 180 0.0 3.2 0.00 0.00 0.00 42 1015.4
20260508084915 9 180 0.0 3.2 0.00 0.00 0.00 41 1015.6
20260508084404 8 203 0.0 0.0 0.00 0.00 0.00 43 1015.7
20260508083854 8 203 0.0 0.0 0.00 0.00 0.00 44 1015.5
20260508082325 8 135 0.0 0.0 0.00 0.00 0.00 44 1015.3
20260508081814 8 158 0.0 0.0 0.00 0.00 0.00 43 1015.4
20260508081304 8 158 0.0 0.0 0.00 0.00 0.00 43 1015.3
20260508080754 8 158 0.0 0.0 0.00 0.00 0.00 42 1015.3
20260508075740 8 180 0.0 0.0 0.00 0.00 0.00 41 1015.7
20260508075223 8 158 0.0 0.0 0.00 0.00 0.00 42 1015.5
20260508074713 8 113 0.0 0.0 0.00 0.00 0.00 41 1015.5
20260508073654 9 203 0.0 0.0 0.00 0.00 0.00 40 1015.6
20260508073143 8 203 0.0 0.0 0.00 0.00 0.00 41 1015.2
20260508072634 8 135 0.0 0.0 0.00 0.00 0.00 42 1015.3
20260508072123 8 203 0.0 0.0 0.00 0.00 0.00 42 1015.4
20260508071613 8 158 0.0 0.0 0.00 0.00 0.00 42 1015.2
20260508071103 8 203 0.0 3.2 0.00 0.00 0.00 43 1014.9
20260508070553 8 135 0.0 3.2 0.00 0.00 0.00 42 1015.1
20260508070043 8 68 0.0 0.0 0.00 0.00 0.00 41 1015.1
20260508065532 9 203 0.0 0.0 0.00 0.00 0.00 40 1015.2
20260508064513 9 203 0.0 3.2 0.00 0.00 0.00 41 1015.0
20260508064002 9 225 0.0 3.2 0.00 0.00 0.00 41 1015.2
20260508063452 9 180 0.0 3.2 0.00 0.00 0.00 41 1015.2
20260508062941 9 203 0.0 0.0 0.00 0.00 0.00 41 1015.2
20260508061922 9 135 0.0 3.2 0.00 0.00 0.00 41 1014.8
20260508061411 9 203 0.0 0.0 0.00 0.00 0.00 41 1014.7
20260508060902 9 180 0.0 3.2 0.00 0.00 0.00 40 1014.8
20260508060351 9 180 0.0 3.2 0.00 0.00 0.00 40 1015.0
20260508055842 9 203 0.0 3.2 0.00 0.00 0.00 41 1014.8
20260508055331 10 180 0.0 3.2 0.00 0.00 0.00 39 1015.0
20260508054821 10 203 0.0 3.2 0.00 0.00 0.00 39 1015.1
20260508054311 10 180 0.0 0.0 0.00 0.00 0.00 38 1015.0
20260508053800 10 158 0.0 0.0 0.00 0.00 0.00 38 1014.8
20260508052740 10 180 0.0 0.0 0.00 0.00 0.00 41 1015.1
20260508052231 9 180 0.0 3.2 0.00 0.00 0.00 42 1015.2
20260508051721 9 158 0.0 3.2 0.00 0.00 0.00 41 1014.9
20260508051210 10 225 0.0 3.2 0.00 0.00 0.00 40 1014.9
20260508050701 10 203 0.0 0.0 0.00 0.00 0.00 40 1015.1
20260508050150 10 203 0.0 0.0 0.00 0.00 0.00 40 1015.1
20260508045639 10 135 0.0 0.0 0.00 0.00 0.00 40 1014.9
20260508045130 10 180 0.0 0.0 0.00 0.00 0.00 40 1014.9
20260508044620 10 225 0.0 0.0 0.00 0.00 0.00 40 1014.7
20260508044110 9 180 0.0 0.0 0.00 0.00 0.00 41 1014.7
20260508043600 9 158 0.0 0.0 0.00 0.00 0.00 41 1014.5
20260508043059 9 135 0.0 0.0 0.00 0.00 0.00 41 1015.0
20260508042540 9 158 0.0 0.0 0.00 0.00 0.00 42 1014.9
20260508041529 9 180 0.0 3.2 0.00 0.00 0.00 42 1014.6
20260508041011 9 225 0.0 3.2 0.00 0.00 0.00 41 1014.5
20260508040459 9 225 0.0 3.2 0.00 0.00 0.00 40 1014.2
20260508035948 10 203 0.0 3.2 0.00 0.00 0.00 40 1014.7
20260508034929 9 180 0.0 3.2 0.00 0.00 0.00 41 1014.2
20260508034420 9 225 0.0 3.2 0.00 0.00 0.00 42 1014.0
20260508033908 9 203 0.0 0.0 0.00 0.00 0.00 42 1013.9
20260508032848 8 225 0.0 0.0 0.00 0.00 0.00 45 1014.0
20260508032338 7 225 0.0 0.0 0.00 0.00 0.00 50 1014.0
20260508031830 7 248 0.0 0.0 0.00 0.00 0.00 50 1014.2
20260508031318 7 225 0.0 0.0 0.00 0.00 0.00 51 1014.4
20260508030810 7 225 0.0 0.0 0.00 0.00 0.00 52 1014.2
20260508030301 6 248 0.0 0.0 0.00 0.00 0.00 54 1013.9
20260508025237 6 248 0.0 0.0 0.00 0.00 0.00 59 1013.8
20260508024727 5 225 0.0 0.0 0.00 0.00 0.00 61 1014.0
20260508024218 5 270 0.0 0.0 0.00 0.00 0.00 61 1013.9
20260508023707 6 248 0.0 0.0 0.00 0.00 0.00 59 1014.2
20260508023157 6 248 0.0 0.0 0.00 0.00 0.00 58 1014.1
20260508022648 6 248 0.0 0.0 0.00 0.00 0.00 56 1014.1
20260508022136 7 248 0.0 0.0 0.00 0.00 0.00 51 1014.0
20260508021626 8 293 0.0 0.0 0.00 0.00 0.00 48 1014.0
20260508021117 7 270 0.0 0.0 0.00 0.00 0.00 51 1013.8
20260508015546 5 315 0.0 0.0 0.00 0.00 0.00 65 1013.5
20260508014526 6 225 0.0 0.0 0.00 0.00 0.00 60 1013.7
20260508013506 6 225 0.0 0.0 0.00 0.00 0.00 57 1013.2
20260508012956 7 225 0.0 0.0 0.00 0.00 0.00 54 1013.2
20260508012445 6 225 0.0 0.0 0.00 0.00 0.00 57 1013.0
20260508011935 6 248 0.0 0.0 0.00 0.00 0.00 57 1013.2
20260508011425 5 248 0.0 0.0 0.00 0.00 0.00 63 1013.0
20260508010915 4 248 0.0 0.0 0.00 0.00 0.00 66 1013.2
20260508010405 5 248 0.0 0.0 0.00 0.00 0.00 65 1013.1
20260508005855 4 270 0.0 0.0 0.00 0.00 0.00 65 1013.1
20260508005347 4 225 0.0 0.0 0.00 0.00 0.00 66 1013.1
20260508004326 4 225 0.0 0.0 0.00 0.00 0.00 64 1013.0
20260508003815 4 225 0.0 0.0 0.00 0.00 0.00 64 1013.1
20260508003304 3 248 0.0 0.0 0.00 0.00 0.00 64 1012.9
20260508002754 4 248 0.0 0.0 0.00 0.00 0.00 63 1013.1
20260508001734 5 293 0.0 0.0 0.00 0.00 0.00 63 1012.7
20260508001224 4 248 0.0 0.0 0.00 0.00 0.00 61 1012.9